Weather History for KCID - August, 2013

Change the Weather History Date:

Monday, August 12, 2013

  Actual Average Record
Temperature  
Mean Temperature 70 °F 72 °F  
Max Temperature 82 °F 82 °F 99 °F (1936)
Min Temperature 58 °F 61 °F 43 °F (1931)
Degree Days  
Heating Degree Days 0 0  
Month to date heating degree days 0 0  
Since 1 June heating degree days 41 33  
Since 1 July heating degree days 13 4  
Cooling Degree Days 5 7  
Month to date cooling degree days 62 86  
Year to date cooling degree days 542 553  
Since 1 June cooling degree days 468 504  
Growing Degree Days 22 (Base 50)    
Moisture  
Dew Point 61 °F    
Average Humidity 68    
Maximum Humidity 93    
Minimum Humidity 43    
Precipitation  
Precipitation T in 0.14 in 2.16 in (1974)
Month to date precipitation 0.06 1.69  
Year to date precipitation 29.35 22.51  
Sea Level Pressure  
Sea Level Pressure 29.98 in    
Wind  
Wind Speed 7 mph (NW)    
Max Wind Speed 16 mph    
Max Gust Speed 24 mph    
Visibility 10 miles    
Events      
T = Trace of Precipitation, MM = Missing Value Source: NWS Daily Summary

Daily Weather History Graph

Daily Weather History Graph

Search for Another Location

Airport or City:

Trip Planner

Search our weather history database for the weather conditions in past years. The results will help you decide how hot, cold, wet, or windy it might be!

Date:

Astronomy

Aug. 12, 2013 Rise Set
Actual Time 6:12 AM CDT 8:10 PM CDT
Civil Twilight 5:41 AM CDT 8:40 PM CDT
Nautical Twilight 5:04 AM CDT 9:17 PM CDT
Astronomical Twilight 4:24 AM CDT 9:57 PM CDT
Moon 12:09 PM CDT (8/12) 10:57 PM CDT (8/12)
Length of Visible Light 14h 59m
Length of Day
13h 58m
Waxing Crescent, 31% of the Moon is Illuminated
Aug 12
Waxing Crescent
Aug 14
First Quarter
Aug 20
Full
Aug 28
Last Quarter
Sep 5
New

Hourly Weather History & Observations

Time (CDT) Temp. Heat Index Dew Point Humidity Pressure Visibility Wind Dir Wind Speed Gust Speed Precip Events Conditions
12:52 AM 69.1 °F - 63.0 °F 81% 30.01 in 10.0 mi NNW 5.8 mph - N/A   Partly Cloudy
1:52 AM 66.9 °F - 64.0 °F 90% 29.99 in 10.0 mi SSE 3.5 mph - 0.00 in   Partly Cloudy
2:52 AM 68.0 °F - 64.0 °F 87% 30.00 in 10.0 mi South 3.5 mph - 0.00 in   Mostly Cloudy
3:52 AM 66.0 °F - 63.0 °F 90% 29.98 in 10.0 mi South 4.6 mph - N/A   Clear
4:52 AM 64.0 °F - 62.1 °F 93% 29.97 in 10.0 mi SW 4.6 mph - N/A   Clear
5:52 AM 64.0 °F - 62.1 °F 93% 29.97 in 9.0 mi WSW 3.5 mph - N/A   Clear
6:52 AM 66.0 °F - 64.0 °F 93% 29.98 in 8.0 mi West 4.6 mph - N/A   Overcast
7:52 AM 66.9 °F - 64.9 °F 93% 29.97 in 9.0 mi West 4.6 mph - N/A   Overcast
8:47 AM 69.8 °F - 64.4 °F 83% 29.99 in 10.0 mi WNW 5.8 mph - N/A   Overcast
8:52 AM 69.1 °F - 64.9 °F 87% 29.98 in 10.0 mi WNW 6.9 mph - N/A   Overcast
9:52 AM 71.1 °F - 66.0 °F 84% 29.99 in 10.0 mi NW 10.4 mph - N/A   Mostly Cloudy
10:24 AM 71.6 °F - 64.4 °F 78% 30.01 in 9.0 mi North 11.5 mph - N/A   Overcast
10:52 AM 73.0 °F - 64.9 °F 76% 30.00 in 10.0 mi NNW 9.2 mph - N/A   Overcast
11:52 AM 75.9 °F - 64.9 °F 69% 29.99 in 10.0 mi NNW 8.1 mph - N/A   Scattered Clouds
12:52 PM 78.1 °F - 64.0 °F 62% 29.98 in 10.0 mi NNW 10.4 mph - N/A   Scattered Clouds
1:52 PM 79.0 °F - 63.0 °F 58% 29.98 in 10.0 mi NNW 10.4 mph - N/A   Scattered Clouds
2:52 PM 80.1 °F 80.9 °F 60.1 °F 50% 29.96 in 10.0 mi NNW 10.4 mph - N/A   Partly Cloudy
3:52 PM 82.0 °F 82.0 °F 57.9 °F 44% 29.95 in 10.0 mi NW 12.7 mph - N/A   Scattered Clouds
4:52 PM 81.0 °F 81.0 °F 57.0 °F 44% 29.95 in 10.0 mi NNW 11.5 mph - N/A   Clear
5:52 PM 80.1 °F 80.6 °F 57.9 °F 47% 29.95 in 10.0 mi NNW 10.4 mph - N/A   Partly Cloudy
6:52 PM 75.9 °F - 55.9 °F 50% 29.96 in 10.0 mi NNW 9.2 mph - N/A   Clear
7:52 PM 72.0 °F - 57.0 °F 59% 29.96 in 10.0 mi NNW 8.1 mph - N/A   Clear
8:52 PM 68.0 °F - 57.0 °F 68% 29.98 in 10.0 mi NNW 6.9 mph - N/A   Clear
9:52 PM 63.0 °F - 57.0 °F 81% 30.00 in 10.0 mi NNW 4.6 mph - N/A   Clear
10:52 PM 63.0 °F - 55.9 °F 78% 30.01 in 10.0 mi NW 3.5 mph - N/A   Clear
11:52 PM 61.0 °F - 55.9 °F 83% 30.02 in 10.0 mi NW 3.5 mph - N/A   Clear